Weather History for Franklin, PA

Change the Weather History Date:

Tuesday, February 12, 2013

  Actual Average Record
Temperature  
Mean Temperature 26 °F -  
Max Temperature 32 °F 34 °F 63 °F (1965)
Min Temperature 21 °F 14 °F -15 °F (1979)
Degree Days  
Heating Degree Days 38    
Moisture  
Dew Point 21 °F    
Average Humidity 72    
Maximum Humidity 93    
Minimum Humidity 64    
Precipitation  
Precipitation 0.00 in - - ()
Sea Level Pressure  
Sea Level Pressure 29.94 in    
Wind  
Wind Speed 11 mph (WSW)    
Max Wind Speed 17 mph    
Max Gust Speed 29 mph    
Visibility 10 miles    
Events      
Averages and records for this station are not official NWS values.
T = Trace of Precipitation, MM = Missing Value Source: NWS Daily Summary

Daily Weather History Graph

Daily Weather History Graph

Search for Another Location

Airport:

Trip Planner

Search our weather history database for the weather conditions in past years. The results will help you decide how hot, cold, wet, or windy it might be!

Date:

Astronomy

Feb. 12, 2013 Rise Set
Actual Time 7:17 AM EST 5:49 PM EST
Civil Twilight 6:49 AM EST 6:18 PM EST
Nautical Twilight 6:17 AM EST 6:50 PM EST
Astronomical Twilight 5:44 AM EST 7:23 PM EST
Moon 8:11 AM EST (2/12) 8:51 PM EST (2/12)
Length of Visible Light 11h 28m
Length of Day
10h 31m
Waxing Crescent, 7% of the Moon is Illuminated
Feb 12
Waxing Crescent
Feb 17
First Quarter
Feb 25
Full
Mar 4
Last Quarter
Mar 11
New

Hourly Weather History & Observations

Time (EST) Temp. Windchill Dew Point Humidity Pressure Visibility Wind Dir Wind Speed Gust Speed Precip Events Conditions
12:15 AM 32.0 °F 22.5 °F 23.0 °F 69% 29.85 in 10.0 mi WSW 12.7 mph 21.9 mph N/A   Overcast
12:35 AM 32.0 °F 23.0 °F 23.0 °F 69% 29.86 in 10.0 mi West 11.5 mph 16.1 mph N/A   Overcast
12:55 AM 32.0 °F 23.0 °F 24.8 °F 75% 29.86 in 10.0 mi West 11.5 mph - N/A   Overcast
1:15 AM 32.0 °F 23.0 °F 23.0 °F 69% 29.87 in 10.0 mi WSW 11.5 mph 17.3 mph N/A   Overcast
1:35 AM 32.0 °F 21.6 °F 21.2 °F 64% 29.87 in 10.0 mi WSW 15.0 mph 23.0 mph N/A   Overcast
1:55 AM 30.2 °F 19.8 °F 21.2 °F 69% 29.88 in 10.0 mi WSW 13.8 mph 28.8 mph N/A   Overcast
2:15 AM 30.2 °F 19.8 °F 21.2 °F 69% 29.89 in 10.0 mi WSW 13.8 mph 19.6 mph N/A   Overcast
2:35 AM 30.2 °F 21.3 °F 21.2 °F 69% 29.89 in 10.0 mi WSW 10.4 mph 21.9 mph N/A   Overcast
2:55 AM 30.2 °F 20.2 °F 21.2 °F 69% 29.89 in 10.0 mi WSW 12.7 mph 20.7 mph N/A   Overcast
3:15 AM 30.2 °F 18.9 °F 21.2 °F 69% 29.89 in 10.0 mi WSW 16.1 mph 24.2 mph N/A   Overcast
3:35 AM 30.2 °F 20.2 °F 21.2 °F 69% 29.90 in 10.0 mi WSW 12.7 mph 21.9 mph N/A   Overcast
3:55 AM 30.2 °F 21.9 °F 21.2 °F 69% 29.90 in 10.0 mi WSW 9.2 mph - N/A   Overcast
4:15 AM 30.2 °F 22.6 °F 21.2 °F 69% 29.91 in 10.0 mi WSW 8.1 mph - N/A   Overcast
4:35 AM 30.2 °F 19.8 °F 21.2 °F 69% 29.91 in 10.0 mi WSW 13.8 mph 24.2 mph N/A   Overcast
4:55 AM 30.2 °F 20.2 °F 19.4 °F 64% 29.91 in 10.0 mi WSW 12.7 mph 19.6 mph N/A   Overcast
5:15 AM 30.2 °F 19.3 °F 21.2 °F 69% 29.92 in 10.0 mi WSW 15.0 mph 23.0 mph N/A   Overcast
5:35 AM 30.2 °F 18.5 °F 19.4 °F 64% 29.93 in 10.0 mi West 17.3 mph 24.2 mph N/A   Overcast
5:55 AM 30.2 °F 20.2 °F 21.2 °F 69% 29.93 in 10.0 mi West 12.7 mph 18.4 mph N/A   Overcast
6:15 AM 30.2 °F 18.9 °F 21.2 °F 69% 29.93 in 10.0 mi West 16.1 mph - N/A   Overcast
6:35 AM 30.2 °F 19.8 °F 21.2 °F 69% 29.94 in 10.0 mi West 13.8 mph 17.3 mph N/A   Overcast
6:55 AM 30.2 °F 19.8 °F 21.2 °F 69% 29.95 in 10.0 mi WSW 13.8 mph 18.4 mph N/A   Overcast
7:15 AM 30.2 °F 18.9 °F 21.2 °F 69% 29.96 in 10.0 mi West 16.1 mph 23.0 mph N/A   Overcast
7:35 AM 30.2 °F 20.2 °F 19.4 °F 64% 29.96 in 10.0 mi West 12.7 mph 20.7 mph N/A   Overcast
7:55 AM 28.4 °F 17.5 °F 21.2 °F 74% 29.97 in 10.0 mi West 13.8 mph - N/A   Overcast
8:15 AM 28.4 °F 18.5 °F 21.2 °F 74% 29.98 in 9.0 mi WSW 11.5 mph 18.4 mph N/A   Overcast
8:35 AM 28.4 °F 19.1 °F 21.2 °F 74% 29.98 in 5.0 mi West 10.4 mph 16.1 mph N/A   Overcast
8:55 AM 28.4 °F 18.0 °F 23.0 °F 80% 29.99 in 3.0 mi West 12.7 mph - N/A   Overcast
9:15 AM 28.4 °F 18.0 °F 24.8 °F 86% 29.99 in 2.0 mi West 12.7 mph 18.4 mph N/A   Overcast
9:35 AM 28.4 °F 17.5 °F 23.0 °F 80% 29.99 in 4.0 mi West 13.8 mph - N/A   Overcast
9:55 AM 28.4 °F 18.0 °F 23.0 °F 80% 30.00 in 4.0 mi WSW 12.7 mph - N/A   Overcast
10:15 AM 28.4 °F 18.0 °F 23.0 °F 80% 30.00 in 8.0 mi WSW 12.7 mph - N/A   Overcast
10:35 AM 30.2 °F 19.8 °F 23.0 °F 75% 30.00 in 9.0 mi WSW 13.8 mph 18.4 mph N/A   Overcast
10:55 AM 30.2 °F 20.2 °F 23.0 °F 75% 30.00 in 10.0 mi West 12.7 mph - N/A   Overcast
11:15 AM 30.2 °F 21.3 °F 21.2 °F 69% 30.01 in 10.0 mi WSW 10.4 mph - N/A   Overcast
11:35 AM 30.2 °F 19.8 °F 21.2 °F 69% 30.01 in 10.0 mi West 13.8 mph 19.6 mph N/A   Overcast
11:55 AM 30.2 °F 20.2 °F 21.2 °F 69% 30.01 in 10.0 mi WSW 12.7 mph - N/A   Overcast
12:15 PM 30.2 °F 22.6 °F 21.2 °F 69% 30.00 in 10.0 mi West 8.1 mph 18.4 mph N/A   Overcast
12:35 PM 30.2 °F 21.3 °F 21.2 °F 69% 29.99 in 10.0 mi West 10.4 mph - N/A   Overcast
12:55 PM 30.2 °F 20.8 °F 21.2 °F 69% 29.97 in 10.0 mi West 11.5 mph 18.4 mph N/A   Overcast
1:15 PM 30.2 °F 20.2 °F 21.2 °F 69% 29.96 in 10.0 mi WSW 12.7 mph 16.1 mph N/A   Overcast
1:35 PM 30.2 °F 19.8 °F 21.2 °F 69% 29.97 in 10.0 mi West 13.8 mph - N/A   Overcast
1:55 PM 30.2 °F 20.2 °F 21.2 °F 69% 29.97 in 10.0 mi West 12.7 mph - N/A   Overcast
2:15 PM 30.2 °F 20.8 °F 21.2 °F 69% 29.94 in 10.0 mi WSW 11.5 mph - N/A   Overcast
2:35 PM 30.2 °F 22.6 °F 21.2 °F 69% 29.91 in 10.0 mi West 8.1 mph - N/A   Overcast
2:55 PM 30.2 °F 23.4 °F 21.2 °F 69% 29.90 in 10.0 mi West 6.9 mph - N/A   Overcast
3:15 PM 30.2 °F 21.3 °F 21.2 °F 69% 29.91 in 10.0 mi West 10.4 mph - N/A   Overcast
3:35 PM 30.2 °F 23.4 °F 21.2 °F 69% 29.92 in 10.0 mi West 6.9 mph - N/A   Overcast
3:55 PM 30.2 °F 21.9 °F 21.2 °F 69% 29.95 in 10.0 mi WSW 9.2 mph - N/A   Overcast
4:15 PM 30.2 °F 22.6 °F 21.2 °F 69% 29.95 in 10.0 mi West 8.1 mph - N/A   Overcast
4:35 PM 30.2 °F 22.6 °F 21.2 °F 69% 29.97 in 10.0 mi WSW 8.1 mph - N/A   Overcast
4:55 PM 30.2 °F 25.4 °F 21.2 °F 69% 29.95 in 10.0 mi West 4.6 mph - N/A   Overcast
5:15 PM 30.2 °F 24.3 °F 21.2 °F 69% 29.95 in 10.0 mi WSW 5.8 mph - N/A   Overcast
5:35 PM 30.2 °F 24.3 °F 21.2 °F 69% 29.95 in 10.0 mi WSW 5.8 mph - N/A   Overcast
5:55 PM 30.2 °F 23.4 °F 21.2 °F 69% 29.97 in 10.0 mi SW 6.9 mph - N/A   Overcast
6:15 PM 30.2 °F 21.9 °F 21.2 °F 69% 29.97 in 10.0 mi WSW 9.2 mph - N/A   Mostly Cloudy
6:35 PM 28.4 °F 24.6 °F 19.4 °F 69% 29.96 in 10.0 mi West 3.5 mph - N/A   Clear
6:55 PM 28.4 °F - 19.4 °F 69% 29.96 in 10.0 mi Calm Calm - N/A   Partly Cloudy
7:15 PM 26.6 °F - 19.4 °F 74% 29.94 in 10.0 mi Calm Calm - N/A   Clear
7:35 PM 26.6 °F - 19.4 °F 74% 29.93 in 10.0 mi Calm Calm - N/A   Clear
7:55 PM 26.6 °F - 21.2 °F 80% 29.92 in 10.0 mi Calm Calm - N/A   Clear
8:15 PM 26.6 °F - 19.4 °F 74% 29.92 in 10.0 mi Calm Calm - N/A   Clear
8:35 PM 26.6 °F - 21.2 °F 80% 29.93 in 10.0 mi Calm Calm - N/A   Clear
8:55 PM 26.6 °F - 21.2 °F 80% 29.92 in 10.0 mi Calm Calm - N/A   Clear
9:15 PM 24.8 °F - 19.4 °F 80% 29.91 in 10.0 mi Calm Calm - N/A   Clear
9:35 PM 24.8 °F - 19.4 °F 80% 29.90 in 10.0 mi Calm Calm - N/A   Clear
9:55 PM 24.8 °F - 19.4 °F 80% 29.89 in 10.0 mi Calm Calm - N/A   Clear
10:15 PM 24.8 °F - 21.2 °F 86% 29.90 in 9.0 mi Calm Calm - N/A   Clear
10:35 PM 24.8 °F - 19.4 °F 80% 29.89 in 10.0 mi Calm Calm - N/A   Clear
10:55 PM 24.8 °F - 21.2 °F 86% 29.89 in 10.0 mi Calm Calm - N/A   Clear
11:15 PM 21.2 °F - 17.6 °F 86% 29.89 in 10.0 mi Calm Calm - N/A   Clear
11:35 PM 21.2 °F - 19.4 °F 93% 29.88 in 9.0 mi Calm Calm - N/A   Clear
11:55 PM 21.2 °F - 15.8 °F 80% 29.88 in 9.0 mi Calm Calm - N/A   Clear